Regional Weather Roundup
Issued by NWS Goodland, KS

Home | Current Version | Previous Version | Graphics & Text | Print | Product List | Glossary On
Versions: 1 2 3 4 5 6 7 8 9 10 11 12 13 14 15 16 17 18 19 20 21 22 23 24 25 26 27 28 29 30 31 32 33 34 35 36 37 38 39 40 41 42 43 44 45 46 47 48 49 50
074
ASUS43 KGLD 282359
RWRGLD

GOODLAND FORECAST AREA HOURLY WEATHER ROUNDUP
NATIONAL WEATHER SERVICE GOODLAND KS
600 PM MDT SUN MAY 28 2017

...OFFICIAL OBSERVATIONS...

CITY           SKY/WX    TMP DP  RH WIND       PRES   REMARKS
GOODLAND KS    MOSUNNY   73  41  31 W9        30.10F
HILL CITY KS   PTSUNNY   78  44  29 NW8       30.02F
IMPERIAL NEB   SUNNY     74  40  29 NW15      30.07S
MCCOOK NEB     SUNNY     78  43  28 N9        30.03S
AKRON CO       PTSUNNY   70  36  28 NW7       30.15F
BURLINGTON CO  SUNNY     73  39  29 W10       30.14F
LIMON CO       SUNNY     67  34  29 N6        30.20F
$$

...UNOFFICIAL OBSERVATIONS...

CITY           SKY/WX    TMP DP  RH WIND       PRES   REMARKS
LENORA KS        N/A     73  32  22 MISG        N/A
NORTON KS      MOSUNNY   73  45  35 N8        30.02F
SHARON SPRINGS   N/A     76  37  24 N7G18       N/A
TRENTON NEB      N/A     74  32  21 NW8         N/A
$$




USA.gov is the U.S. government's official web portal to all federal, state and local government web resources and services.